This is the latest recevied weather packets stored in our database for station/object K5BOU. If no packets are shown the sender has not sent any weather packets the latest 10 day(s).
| Time | Temp. | Humidity | Pressure | Rain* | Wind** | Luminosity | Snow |
|---|---|---|---|---|---|---|---|
| 1777634352 | 18.33° C | 99% | 1008.5 hPa | 0 mm | - | 0 W/m² | - |
| 1777634048 | 18.33° C | 99% | 1008.7 hPa | 0 mm | - | 0 W/m² | - |
| 1777633744 | 18.33° C | 99% | 1008 hPa | 0 mm | - | 0 W/m² | - |
| 1777633443 | 18.33° C | 99% | 1008.4 hPa | 0 mm | - | 0 W/m² | - |
| 1777633140 | 18.33° C | 99% | 1008.4 hPa | 0 mm | - | 0 W/m² | - |
| 1777632836 | 18.33° C | 99% | 1008.2 hPa | 0 mm | - | 0 W/m² | - |
| 1777632532 | 18.33° C | 99% | 1008.3 hPa | 0 mm | - | 0 W/m² | - |
| 1777632230 | 18.33° C | 99% | 1007.8 hPa | 0 mm | - | 0 W/m² | - |
| 1777631927 | 18.33° C | 99% | 1007.4 hPa | 0 mm | - | 0 W/m² | - |
| 1777631626 | 18.33° C | 99% | 1007.1 hPa | 0 mm | - | 0 W/m² | - |
| 1777631322 | 18.33° C | 99% | 1008.5 hPa | 0 mm | - | 0 W/m² | - |
| 1777631019 | 18.33° C | 99% | 1008.8 hPa | 0 mm | - | 0 W/m² | - |
| 1777630715 | 18.33° C | 99% | 1008.9 hPa | 0 mm | - | 0 W/m² | - |
| 1777630412 | 18.33° C | 99% | 1008.8 hPa | 1.78 mm | - | 0 W/m² | - |
| 1777630110 | 18.33° C | 99% | 1008.5 hPa | 7.87 mm | - | 0 W/m² | - |
| 1777629807 | 18.33° C | 99% | 1008.2 hPa | 8.89 mm | - | 0 W/m² | - |
| 1777629503 | 18.33° C | 99% | 1007.4 hPa | 3.05 mm | - | 0 W/m² | - |
| 1777629200 | 18.33° C | 99% | 1009.2 hPa | 0 mm | - | 0 W/m² | - |
| 1777628896 | 18.89° C | 99% | 1009.4 hPa | 1.78 mm | - | 0 W/m² | - |
| 1777628593 | 18.89° C | 99% | 1009.3 hPa | 1.27 mm | - | 0 W/m² | - |
| 1777628288 | 18.89° C | 99% | 1009 hPa | 0 mm | - | 0 W/m² | - |
| 1777627979 | 18.89° C | 99% | 1009.2 hPa | 0 mm | - | 0 W/m² | - |
| 1777627673 | 18.89° C | 99% | 1009.2 hPa | 0 mm | - | 0 W/m² | - |
| 1777627372 | 18.89° C | 99% | 1009 hPa | 0 mm | - | 0 W/m² | - |
| 1777627070 | 18.89° C | 99% | 1008.7 hPa | 1.78 mm | - | 0 W/m² | - |
* Rain latest hour (hover to see other rain measurements)
** Current wind speed in m/s (hover to see current wind gust speed)